Tehachapi, CA

11:38 PM PDT on June 27, 2017 (GMT -0700)
Tehachapi Municipal

Weather History for KTSP - October, 2011

Change the Weather History Date:

Thursday, October 6, 2011

  Actual Average Record
Temperature  
Mean Temperature 44 °F -  
Max Temperature 48 °F 76 °F 86 °F (2014)
Min Temperature 39 °F 45 °F 32 °F (2016)
Degree Days  
Heating Degree Days 22    
Moisture  
Dew Point 39 °F    
Average Humidity 88    
Maximum Humidity 100    
Minimum Humidity 62    
Precipitation  
Precipitation 0.38 in - - ()
Sea Level Pressure  
Sea Level Pressure 29.91 in    
Wind  
Wind Speed 16 mph (WNW)    
Max Wind Speed 22 mph    
Max Gust Speed 29 mph    
Visibility 6 miles    
Events Rain    
Averages and records for this station are not official NWS values.
T = Trace of Precipitation, MM = Missing Value Source: NWS Daily Summary

Daily Weather History Graph

Daily Weather History Graph

Search for Another Location

Airport or City:

Trip Planner

Search our weather history database for the weather conditions in past years. The results will help you decide how hot, cold, wet, or windy it might be!

Date:

Astronomy

Oct. 06, 2011 Rise Set
Actual Time 6:52 AM PDT 6:30 PM PDT
Civil Twilight 6:26 AM PDT 6:56 PM PDT
Nautical Twilight 5:57 AM PDT 7:25 PM PDT
Astronomical Twilight 5:28 AM PDT 7:54 PM PDT
Moon 3:37 PM PDT (10/6) 1:56 AM PDT (10/6)
Length of Visible Light 12h 29m
Length of Day
11h 38m
Waxing Gibbous, 76% of the Moon is Illuminated
Oct 6
Waxing Gibbous
Oct 11
Full
Oct 19
Last Quarter
Oct 26
New
Nov 2
First Quarter

Hourly Weather History & Observations

Time (PDT) Temp. Windchill Dew Point Humidity Pressure Visibility Wind Dir Wind Speed Gust Speed Precip Events Conditions
12:15 AM 39.2 °F 32.0 °F 37.4 °F 93% 29.86 in 5.0 mi WNW 11.5 mph 21.9 mph 0.01 in Rain Light Rain
12:35 AM 39.2 °F 30.5 °F 39.2 °F 100% 29.85 in 5.0 mi NW 16.1 mph - 0.01 in   Mist
12:55 AM 39.2 °F 29.8 °F 39.2 °F 100% 29.86 in 1.5 mi WNW 18.4 mph 25.3 mph 0.11 in Rain Heavy Rain
1:15 AM 39.2 °F 29.8 °F 39.2 °F 100% 29.86 in 8.0 mi NW 18.4 mph 24.2 mph N/A   Unknown
1:35 AM 39.2 °F 29.6 °F 39.2 °F 100% 29.87 in 8.0 mi WNW 19.6 mph 26.5 mph N/A   Unknown
1:55 AM 39.2 °F 29.6 °F 39.2 °F 100% 29.87 in 8.0 mi WNW 19.6 mph 26.5 mph N/A   Unknown
2:15 AM 39.2 °F 29.8 °F 39.2 °F 100% 29.87 in 9.0 mi WNW 18.4 mph 23.0 mph N/A   Clear
2:35 AM 39.2 °F 30.5 °F 39.2 °F 100% 29.88 in 9.0 mi WNW 16.1 mph 24.2 mph N/A   Partly Cloudy
2:55 AM 39.2 °F 30.5 °F 37.4 °F 93% 29.88 in 9.0 mi WNW 16.1 mph 23.0 mph N/A   Unknown
3:15 AM 39.2 °F 29.8 °F 37.4 °F 93% 29.88 in 7.0 mi WNW 18.4 mph 24.2 mph N/A Rain Light Rain
3:35 AM 39.2 °F 29.3 °F 39.2 °F 100% 29.88 in 3.0 mi WNW 20.7 mph 27.6 mph 0.03 in Rain Light Rain
3:55 AM 39.2 °F 30.5 °F 39.2 °F 100% 29.87 in 3.0 mi WNW 16.1 mph 26.5 mph 0.09 in Rain Light Rain
4:15 AM 39.2 °F 29.0 °F 39.2 °F 100% 29.88 in 2.5 mi WNW 21.9 mph - 0.05 in Rain Light Rain
4:35 AM 39.2 °F 29.3 °F 39.2 °F 100% 29.88 in 6.0 mi WNW 20.7 mph 28.8 mph 0.05 in Rain Light Rain
4:55 AM 39.2 °F 30.2 °F 39.2 °F 100% 29.88 in 2.5 mi WNW 17.3 mph 24.2 mph 0.07 in Rain Light Rain
5:15 AM 39.2 °F 29.3 °F 39.2 °F 100% 29.89 in 5.0 mi WNW 20.7 mph 26.5 mph 0.04 in Rain Light Rain
5:55 AM 39.2 °F 30.5 °F 39.2 °F 100% 29.90 in 5.0 mi WNW 16.1 mph 21.9 mph 0.04 in Rain Light Rain
6:15 AM 39.2 °F 30.5 °F 39.2 °F 100% 29.91 in 3.0 mi WNW 16.1 mph 25.3 mph 0.03 in Rain Light Rain
6:35 AM 39.2 °F 31.6 °F 37.4 °F 93% 29.91 in 5.0 mi WNW 12.7 mph 20.7 mph 0.04 in Rain Light Rain
6:55 AM 39.2 °F 29.8 °F 37.4 °F 93% 29.91 in 2.5 mi WNW 18.4 mph 24.2 mph 0.05 in Rain Light Rain
7:15 AM 39.2 °F 32.0 °F 39.2 °F 100% 29.92 in 4.0 mi WNW 11.5 mph 17.3 mph N/A Rain Light Rain
7:35 AM 39.2 °F 31.2 °F 39.2 °F 100% 29.92 in 6.0 mi WNW 13.8 mph - N/A   Mist
7:55 AM 39.2 °F 31.2 °F 39.2 °F 100% 29.93 in 3.0 mi WNW 13.8 mph 20.7 mph N/A Rain Light Rain
8:15 AM 39.2 °F 31.2 °F 39.2 °F 100% 29.94 in 2.0 mi WNW 13.8 mph - 0.01 in Rain Light Rain
8:55 AM 41.0 °F 32.5 °F 41.0 °F 100% 29.95 in 6.0 mi WNW 17.3 mph - 0.02 in   Clear
9:15 AM 41.0 °F 33.1 °F 41.0 °F 100% 29.95 in 6.0 mi NW 15.0 mph - N/A   Clear
9:35 AM - - - N/A% - - North - - N/A   Unknown
9:55 AM - - - N/A% - - North - - N/A   Unknown
10:15 AM - - - N/A% - - North - - N/A   Unknown
10:35 AM - - - N/A% - - North - - N/A   Unknown
10:55 AM - - - N/A% 29.95 in - NW 17.3 mph - N/A   Unknown
11:15 AM 44.6 °F 37.8 °F 39.2 °F 81% 29.96 in 8.0 mi NW 15.0 mph 19.6 mph N/A   Clear
11:35 AM 44.6 °F 37.8 °F 39.2 °F 81% 29.96 in 8.0 mi WNW 15.0 mph 21.9 mph N/A   Clear
12:15 PM 46.4 °F 40.1 °F 37.4 °F 71% 29.96 in 8.0 mi WNW 15.0 mph 23.0 mph N/A   Clear
12:55 PM 48.2 °F - 39.2 °F 71% 29.96 in 9.0 mi WNW 17.3 mph 25.3 mph N/A   Clear
1:15 PM 46.4 °F 39.8 °F 37.4 °F 71% 29.95 in 9.0 mi WNW 16.1 mph 23.0 mph N/A   Clear
1:35 PM 48.2 °F - 37.4 °F 66% 29.94 in 9.0 mi WNW 15.0 mph 26.5 mph N/A   Clear
1:55 PM 48.2 °F - 37.4 °F 66% 29.94 in 9.0 mi NW 20.7 mph 27.6 mph N/A   Clear
2:15 PM 46.4 °F 38.7 °F 37.4 °F 71% 29.93 in 9.0 mi NW 20.7 mph 26.5 mph N/A   Clear
2:35 PM 48.2 °F - 39.2 °F 71% 29.93 in 7.0 mi WNW 16.1 mph 25.3 mph N/A   Clear
2:55 PM 48.2 °F - 39.2 °F 71% 29.93 in 8.0 mi NW 19.6 mph 24.2 mph N/A   Clear
3:15 PM 48.2 °F - 39.2 °F 71% 29.93 in 8.0 mi WNW 15.0 mph 21.9 mph N/A   Partly Cloudy
3:35 PM 46.4 °F 39.2 °F 37.4 °F 71% 29.93 in 9.0 mi NW 18.4 mph 25.3 mph N/A   Clear
3:55 PM 46.4 °F 39.5 °F 37.4 °F 71% 29.93 in 8.0 mi WNW 17.3 mph - N/A   Clear
4:15 PM 48.2 °F - 35.6 °F 62% 29.93 in 8.0 mi NW 15.0 mph 25.3 mph N/A   Clear
4:35 PM 48.2 °F - 35.6 °F 62% 29.93 in 9.0 mi NW 16.1 mph 26.5 mph N/A   Clear
4:55 PM 46.4 °F 39.8 °F 37.4 °F 71% 29.93 in 8.0 mi NW 16.1 mph 24.2 mph N/A   Clear
5:15 PM 46.4 °F 40.1 °F 37.4 °F 71% 29.93 in 8.0 mi WNW 15.0 mph 21.9 mph N/A   Clear
5:35 PM 46.4 °F 39.8 °F 35.6 °F 66% 29.94 in 9.0 mi NW 16.1 mph 21.9 mph N/A   Clear
5:55 PM 46.4 °F 40.7 °F 35.6 °F 66% 29.94 in 9.0 mi NW 12.7 mph 24.2 mph N/A   Clear
6:15 PM 44.6 °F 37.4 °F 35.6 °F 71% 29.95 in 9.0 mi WNW 16.1 mph 24.2 mph N/A   Clear
6:55 PM 42.8 °F 35.8 °F 33.8 °F 70% 29.96 in 10.0 mi WNW 13.8 mph 19.6 mph N/A   Clear
7:15 PM 42.8 °F 34.8 °F 37.4 °F 81% 29.96 in 10.0 mi WNW 17.3 mph 20.7 mph N/A   Clear
7:35 PM 42.8 °F 35.8 °F 37.4 °F 81% 29.97 in 10.0 mi WNW 13.8 mph 23.0 mph N/A   Clear
7:55 PM 41.0 °F 35.8 °F 37.4 °F 87% 29.98 in 10.0 mi WNW 8.1 mph - N/A   Clear
8:35 PM 41.0 °F 34.3 °F 37.4 °F 87% 29.99 in 10.0 mi WNW 11.5 mph - N/A   Clear
8:55 PM 41.0 °F 33.9 °F 37.4 °F 87% 29.99 in 10.0 mi WNW 12.7 mph - N/A   Clear
9:15 PM 41.0 °F 35.2 °F 37.4 °F 87% 30.01 in 10.0 mi West 9.2 mph - N/A   Clear
9:35 PM 41.0 °F 35.2 °F 37.4 °F 87% 30.02 in 10.0 mi NW 9.2 mph - N/A   Clear
9:55 PM 41.0 °F 36.4 °F 37.4 °F 87% 30.02 in 10.0 mi WNW 6.9 mph - N/A   Partly Cloudy
10:15 PM 42.8 °F 37.5 °F 37.4 °F 81% 30.03 in 10.0 mi WNW 9.2 mph - N/A   Partly Cloudy
10:35 PM 42.8 °F 38.0 °F 37.4 °F 81% 30.04 in 10.0 mi WNW 8.1 mph - N/A   Scattered Clouds
10:55 PM 42.8 °F 38.0 °F 37.4 °F 81% 30.04 in 10.0 mi WNW 8.1 mph - N/A   Scattered Clouds
11:15 PM 41.0 °F 35.8 °F 37.4 °F 87% 30.04 in 10.0 mi West 8.1 mph - N/A   Clear
11:35 PM 41.0 °F 38.0 °F 35.6 °F 81% 30.04 in 9.0 mi WNW 4.6 mph - N/A   Clear
11:55 PM 39.2 °F 35.9 °F 35.6 °F 87% 30.04 in 9.0 mi NW 4.6 mph - N/A   Clear